Temperature
26 26 26 26 26 26 26 26 26 26 27 27 26 25 25 24 24 23 23 22 21 20 19 18 18 18 17 17 17 16 16 16 16 17 17 16 16 16 16 16 16 15 15 15
25 25 25 25 25 25 25 25 26 26 26 26 25 24 24 23 23 23 23 22 21 20 19 19 18 18 18 17 17 17 16 17 17 17 16 16 16 16 16 16 15 15 15 15
24 25 24 24 25 25 25 25 25 25 25 24 24 23 22 22 22 22 22 21 21 20 20 19 18 18 18 18 17 17 17 17 16 16 16 16 16 16 16 16 16 16 15 15
24 23 22 24 24 24 24 24 24 24 24 23 22 21 21 21 21 21 20 20 20 20 19 19 18 18 18 18 17 17 17 17 16 16 16 16 16 16 16 16 16 16 16 15
23 22 23 23 23 22 22 22 23 22 22 22 21 21 22 20 19 19 19 19 19 19 20 19 19 18 18 18 18 17 17 17 17 17 17 16 16 16 16 16 16 16 16 16
21 21 22 22 22 21 22 21 21 21 21 21 21 22 22 19 18 18 18 18 18 19 19 19 19 18 18 18 18 18 18 17 17 17 17 17 17 17 16 16 16 16 15 15
21 21 21 21 21 21 20 20 19 19 19 20 20 20 18 17 17 17 17 17 18 18 19 19 18 18 18 18 18 18 18 17 17 17 17 17 17 16 16 16 16 15 15 15
20 20 20 20 20 20 19 18 18 18 18 18 18 17 17 16 16 16 16 17 17 18 18 18 18 18 18 18 18 18 17 17 17 17 17 17 16 16 16 16 16 15 15 15
20 19 19 18 18 17 16 17 16 17 16 17 17 16 16 15 15 15 15 16 16 17 17 17 17 17 17 17 17 17 17 17 16 16 16 16 16 16 15 15 15 15 15 15
18 18 18 17 16 16 16 16 16 15 15 15 15 15 15 14 14 14 14 14 15 15 16 16 16 17 17 17 17 17 16 16 16 16 16 16 15 15 15 15 15 15 15 15
18 18 17 16 15 15 15 15 14 14 14 14 14 14 13 13 13 13 13 13 14 14 15 15 15 16 16 16 16 16 16 16 16 15 15 15 15 15 15 15 15 15 15 15
17 17 17 15 14 14 14 14 13 13 13 13 13 12 12 12 12 12 12 12 13 13 13 13 14 14 15 15 15 15 15 15 15 15 14 14 14 14 14 14 14 14 14 14
15 15 14 14 13 13 13 13 12 12 12 12 11 11 11 11 11 11 12 12 12 12 12 13 13 13 13 14 14 14 14 14 14 14 14 14 14 14 13 13 13 13 13 13
14 14 14 13 13 13 12 12 12 12 11 11 11 11 11 11 11 11 11 11 11 12 12 12 12 12 13 13 13 13 13 13 13 13 13 13 13 13 13 13 12 12 12 12
13 13 13 13 13 12 12 12 12 11 11 10 10 10 10 10 10 10 10 11 11 11 11 11 11 11 12 12 12 12 12 12 12 12 12 12 12 12 12 12 12 11 11 11
13 13 13 13 12 12 12 12 11 11 10 10 10 10 10 10 10 10 10 10 10 10 10 11 11 11 11 12 12 12 12 12 12 12 12 12 12 12 11 11 11 11 11 10
13 13 12 12 12 12 12 11 11 11 10 10 10 10 10 10 10 9 9 9 9 10 10 10 10 10 11 11 11 11 11 11 11 11 11 11 11 11 11 11 11 10 10 10
12 12 12 12 12 11 11 11 11 10 10 10 10 10 10 9 9 9 9 9 9 9 9 9 9 10 10 10 10 10 10 10 10 10 10 10 10 10 10 10 10 10 9 9
11 11 11 11 11 11 11 11 11 10 10 10 10 10 9 9 9 9 9 9 9 9 9 9 9 9 9 9 10 10 10 10 10 10 10 10 10 10 10 10 9 9 9 9
11 11 11 11 11 10 10 10 10 10 10 10 10 10 9 9 9 9 9 9 9 8 8 9 9 9 9 9 9 9 9 9 9 9 9 9 9 9 9 9 9 8 8 8
10 10 10 10 10 10 10 10 10 10 10 10 10 9 9 9 9 9 9 9 8 8 8 9 8 8 8 9 9 9 9 9 9 9 9 9 8 8 8 8 8 7 7 7
10 10 10 10 10 9 9 10 10 10 10 10 10 9 9 9 9 9 9 8 8 8 8 8 8 8 8 8 8 8 8 8 8 8 8 8 7 7 7 7 7 7 6 6
9 10 10 9 9 9 9 9 9 10 9 9 9 9 9 9 9 9 9 8 8 8 8 8 8 8 8 8 8 8 7 7 7 7 7 7 7 6 6 6 6 6 6 5
9 9 9 9 9 9 9 9 9 9 9 9 9 9 9 9 9 8 8 8 8 7 7 7 7 7 7 7 7 7 7 6 6 6 6 6 6 6 5 5 5 5 5 5
9 9 9 9 9 9 9 9 9 9 9 9 9 9 9 8 8 8 7 7 7 7 7 7 7 6 6 6 6 6 6 5 5 5 5 5 5 5 5 4 4 4 4 4
9 9 9 9 9 9 9 9 9 9 9 9 8 8 8 8 7 7 7 7 7 6 6 6 6 6 6 6 5 5 5 5 5 5 5 4 4 4 4 4 4 4 3 3
9 9 9 9 9 9 9 9 9 9 8 8 8 8 7 7 7 7 7 7 6 6 6 6 6 6 5 5 5 4 4 4 4 4 4 4 4 3 3 3 3 3 3 3
Wind_Speed
9 7 8 10 11 11 13 14 14 12 10 7 5 5 4 3 1 3 6 9 11 13 14 15 16 16 16 16 16 16 16 16 16 15 15 14 14 14 14 14 14 13 13 12
9 9 10 11 12 12 12 13 13 13 11 4 4 3 3 3 2 2 5 7 9 12 13 15 16 17 17 17 17 17 17 17 16 16 15 15 15 15 14 14 14 13 14 13
9 7 8 12 10 10 10 10 11 12 7 4 4 4 4 4 3 3 3 5 7 10 12 13 16 17 18 18 17 17 17 17 17 16 16 16 16 15 15 15 14 14 14 14
7 6 11 3 1 3 6 6 7 6 4 3 4 4 4 3 4 4 4 4 5 8 10 12 14 16 17 17 18 18 18 17 17 17 17 16 16 16 15 14 14 14 14 14
7 9 8 3 1 2 5 6 3 3 3 3 3 4 2 2 4 5 6 6 6 7 9 10 13 15 17 17 18 18 18 18 18 18 17 17 16 16 15 14 14 13 13 13
7 9 8 1 2 2 5 5 2 3 3 4 4 5 1 6 8 8 7 6 5 6 8 9 11 13 16 17 18 18 18 17 17 17 17 17 17 16 14 13 13 13 13 13
10 9 4 3 2 3 5 1 4 5 5 5 4 4 5 7 8 8 7 7 5 4 6 7 9 12 14 16 16 16 15 15 15 16 16 16 15 14 13 13 12 12 12 11
7 8 4 3 1 2 3 5 5 5 5 5 4 3 4 6 7 8 8 7 4 2 3 4 7 10 13 14 13 13 13 14 14 15 14 13 13 13 13 13 13 12 11 10
2 0 4 3 3 4 4 4 5 5 5 4 3 3 4 5 6 7 8 7 5 2 1 1 4 7 9 10 11 12 12 13 12 13 12 11 12 12 12 11 11 11 10 10
2 2 1 2 3 4 4 4 5 4 3 3 3 4 4 5 6 7 8 7 6 5 5 4 2 3 4 6 8 10 11 10 10 10 10 10 8 9 9 10 10 9 9 8
3 1 1 2 4 5 4 5 5 6 5 4 4 5 5 6 6 7 7 7 7 7 7 6 5 4 3 4 7 8 8 8 8 8 8 7 6 4 6 4 4 6 7 7
1 1 1 2 4 5 5 6 6 7 8 8 8 8 8 7 7 8 8 8 9 9 9 8 8 8 6 4 6 7 7 6 6 6 6 7 7 5 8 6 8 6 5 2
1 2 3 4 4 5 6 7 7 8 9 9 9 9 9 9 9 9 9 10 11 11 11 10 10 10 8 6 6 7 7 6 6 6 6 6 6 7 6 6 9 8 6 6
1 2 3 3 3 4 6 8 8 10 11 11 10 10 10 10 11 12 12 11 12 12 12 12 12 11 9 8 9 9 8 7 6 5 5 5 5 5 5 6 5 4 4 6
2 2 4 4 5 5 6 8 9 10 11 11 11 11 12 12 13 12 12 12 13 13 13 13 13 12 9 10 11 10 9 7 6 6 5 5 5 5 5 5 5 4 4 5
3 5 6 6 7 7 8 9 9 10 11 11 11 11 12 12 13 13 13 13 14 14 13 13 13 11 10 10 11 10 9 9 7 6 6 6 5 5 4 4 4 4 3 3
5 5 6 7 8 9 9 9 10 11 11 12 11 11 11 13 14 14 14 13 13 14 13 13 13 11 11 10 9 8 8 8 7 6 6 6 5 5 4 3 3 3 3 3
4 5 6 7 9 10 10 10 10 11 11 11 11 11 11 12 13 12 12 12 13 14 13 13 12 11 12 11 9 8 7 7 7 7 6 6 5 4 4 4 3 3 3 4
7 8 9 10 10 10 10 10 11 11 10 10 11 11 11 11 11 11 10 11 11 11 10 10 9 10 11 10 7 6 7 7 7 7 6 5 5 5 4 4 4 3 3 2
9 10 11 11 11 11 11 11 11 10 9 10 10 11 10 10 9 9 10 11 10 8 8 8 9 10 9 9 7 7 8 7 7 6 6 5 5 5 5 4 4 3 3 2
10 11 12 12 11 10 10 10 10 10 9 9 10 10 10 9 8 8 7 8 8 7 7 6 7 8 8 7 6 7 7 7 7 6 6 5 5 5 4 4 3 3 3 3
10 11 12 12 11 10 8 8 9 10 9 9 9 9 8 8 8 8 8 7 6 5 5 6 8 9 9 7 6 7 7 6 6 5 5 5 4 4 4 4 3 3 3 3
10 10 11 11 10 10 9 8 8 8 8 9 8 7 7 6 5 5 6 6 6 6 6 7 8 8 9 5 6 6 7 6 6 5 5 5 5 4 4 4 4 4 4 4
10 10 9 9 9 9 8 8 8 7 8 7 7 7 5 5 5 6 6 7 7 6 6 7 7 6 6 4 5 6 6 6 5 5 5 4 4 4 4 4 4 4 4 5
9 9 9 9 8 7 8 8 8 7 6 6 6 6 5 5 5 5 5 6 6 4 5 5 3 4 4 5 5 5 5 5 5 5 4 4 4 4 4 4 4 4 5 5
9 8 7 7 7 5 5 5 5 5 5 5 5 5 5 4 5 4 4 4 5 4 4 4 4 3 5 5 5 5 5 4 4 4 5 4 5 5 5 5 6 5 5 5
8 7 6 6 6 5 5 4 4 4 4 4 4 4 4 3 3 3 3 3 3 3 4 4 4 4 5 5 5 5 5 5 5 5 4 4 5 5 5 5 5 5 5 5
Wind_Direction
256 254 244 243 241 238 242 254 263 269 270 287 317 320 327 326 278 193 186 188 190 190 188 189 189 189 188 187 186 185 186 188 188 186 185 185 185 186 188 192 194 193 195 197
243 243 245 248 247 247 250 256 261 266 268 304 327 330 330 329 309 230 206 200 198 197 194 195 193 191 189 189 187 188 191 192 189 187 188 190 188 188 190 193 196 194 197 199
241 235 247 243 241 244 247 254 264 267 274 296 302 322 332 330 316 301 256 222 211 206 202 200 198 193 192 190 187 190 194 195 192 190 190 191 192 190 192 195 196 197 200 203
245 234 238 227 78 272 268 272 279 280 283 291 307 310 309 317 322 319 311 271 234 220 211 203 199 195 194 191 190 191 195 197 194 193 192 191 193 194 195 197 198 200 202 204
238 238 242 204 196 273 270 271 306 298 300 313 314 278 248 31 357 333 319 297 268 238 221 208 200 195 192 192 192 194 196 197 195 194 193 193 195 196 196 197 200 201 204 206
237 244 242 164 74 329 274 246 53 340 324 316 293 269 336 10 346 334 323 309 282 249 224 207 199 193 193 194 193 197 198 197 195 194 195 195 196 196 196 199 202 203 206 208
235 241 244 57 8 275 248 347 10 337 328 316 316 317 329 335 336 335 330 322 302 256 223 206 192 187 193 196 197 198 196 194 193 192 194 194 193 193 193 196 200 206 207 207
231 236 229 51 328 309 349 353 334 329 329 322 317 317 333 343 345 347 347 346 339 290 226 200 186 186 192 197 197 193 192 192 192 191 193 192 191 192 193 194 196 202 205 207
249 293 62 42 25 4 338 324 325 322 324 325 330 344 357 3 3 2 0 4 6 20 73 132 174 182 192 194 188 184 187 190 189 188 191 189 189 191 193 196 203 203 202 205
214 162 87 34 22 5 355 344 342 343 347 2 12 14 21 22 17 16 14 15 23 41 54 56 86 153 180 179 175 175 177 179 179 179 179 180 182 188 193 195 201 202 201 201
221 171 143 53 21 12 15 24 27 33 42 52 55 50 50 44 35 32 29 30 42 52 55 52 53 69 98 131 149 157 160 162 164 167 168 166 163 163 186 189 200 203 204 199
261 30 346 64 40 33 44 43 43 52 59 60 65 66 63 59 52 49 45 44 53 56 57 56 58 59 60 89 124 136 140 144 151 155 155 157 153 134 71 69 72 69 52 92
353 38 68 82 65 53 58 58 60 65 68 68 68 71 73 70 64 58 53 53 56 58 59 58 59 58 56 67 96 112 121 128 133 138 142 151 152 147 138 99 77 75 80 87
68 100 99 97 87 81 78 75 74 76 75 75 77 76 75 73 68 64 59 59 60 61 60 61 63 58 56 71 85 93 98 95 102 115 129 138 141 144 147 145 139 122 99 105
67 99 120 115 106 101 98 93 86 82 79 77 77 77 77 74 70 66 63 64 64 61 58 59 60 57 56 69 78 80 81 83 88 95 102 110 119 127 130 132 135 138 138 129
104 111 115 113 111 110 106 101 95 91 88 88 83 80 80 80 77 71 64 62 63 60 55 56 57 53 55 66 76 79 79 72 77 92 99 102 104 109 113 123 130 132 134 128
133 126 119 115 113 107 103 103 105 103 99 95 93 91 87 83 77 71 67 64 64 61 55 53 52 51 53 57 65 76 81 83 86 84 84 88 93 99 104 113 119 121 113 94
127 125 119 115 112 108 106 106 106 104 102 103 101 95 89 84 81 77 73 71 68 62 53 49 48 51 51 49 52 60 69 71 73 73 73 72 79 91 99 104 109 105 98 105
115 116 112 109 109 109 108 106 103 99 99 100 98 93 88 85 84 82 79 75 68 62 51 49 43 52 57 50 47 68 67 69 71 72 73 76 76 77 79 82 84 84 85 83
108 110 110 107 103 103 104 105 103 101 99 98 97 95 91 88 85 82 77 70 61 57 52 46 52 53 52 44 28 62 65 65 65 65 64 63 63 65 66 66 63 59 55 47
111 111 110 105 100 95 96 102 107 106 104 102 99 97 95 93 90 87 81 78 67 52 52 50 49 46 45 35 32 54 57 57 58 57 56 56 56 54 54 53 49 43 37 27
111 112 113 110 106 100 96 99 104 106 106 102 98 97 97 93 88 82 74 71 73 38 39 53 55 42 20 6 46 49 50 48 48 48 46 45 44 45 44 39 37 31 25 17
105 109 112 111 110 109 105 101 100 100 99 97 95 92 85 78 76 80 82 73 69 50 49 55 47 23 348 17 44 45 43 41 39 38 35 31 32 34 32 28 23 16 9 359
108 109 111 114 113 111 107 103 99 95 95 93 87 83 81 81 77 73 75 81 64 56 61 64 42 5 337 34 39 40 39 36 35 33 29 25 23 23 20 14 8 3 360 354
106 107 109 113 113 109 110 112 110 106 100 91 86 79 70 66 69 74 76 77 79 69 72 84 69 346 20 40 40 40 38 33 24 20 27 25 21 19 14 9 4 359 357 355
100 97 94 91 94 103 108 107 106 104 95 88 79 70 69 72 76 83 86 86 79 67 57 56 55 46 47 44 40 38 39 42 31 29 30 23 20 19 18 12 4 359 357 357
105 102 99 95 92 87 86 87 87 84 83 81 72 68 72 74 74 74 73 68 63 57 51 47 43 44 47 47 48 47 41 37 33 29 27 23 21 17 14 9 5 359 350 350
Height
1433 1432 1434 1437 1439 1440 1441 1440 1442 1438 1436 1435 1437 1440 1442 1444 1445 1446 1448 1451 1453 1456 1459 1463 1466 1469 1473 1477 1481 1485 1488 1492 1496 1500 1503 1507 1511 1514 1518 1522 1525 1528 1531 1533
1439 1434 1435 1438 1437 1437 1438 1437 1437 1436 1436 1436 1439 1441 1443 1444 1444 1445 1447 1449 1451 1454 1457 1459 1462 1466 1470 1474 1478 1481 1485 1489 1493 1497 1501 1504 1508 1511 1515 1518 1522 1525 1527 1530
1439 1435 1439 1442 1435 1436 1436 1434 1436 1437 1437 1438 1440 1442 1444 1445 1445 1445 1445 1447 1449 1451 1453 1456 1459 1462 1466 1470 1474 1478 1482 1486 1490 1493 1497 1500 1504 1508 1511 1514 1518 1521 1524 1526
1438 1443 1453 1435 1432 1434 1436 1436 1435 1436 1438 1440 1443 1444 1444 1444 1445 1444 1445 1445 1446 1447 1450 1452 1455 1458 1462 1466 1470 1473 1477 1482 1486 1489 1493 1496 1500 1503 1507 1510 1513 1516 1519 1522
1441 1443 1439 1436 1436 1438 1440 1439 1438 1439 1440 1442 1443 1442 1441 1443 1444 1444 1443 1443 1443 1444 1446 1448 1451 1454 1458 1462 1465 1469 1473 1477 1481 1484 1488 1492 1495 1499 1502 1506 1509 1512 1514 1517
1443 1446 1445 1439 1438 1440 1441 1441 1441 1442 1442 1442 1441 1438 1439 1443 1443 1442 1441 1440 1440 1441 1442 1444 1446 1450 1453 1457 1461 1464 1468 1473 1476 1480 1483 1487 1490 1494 1498 1502 1505 1507 1510 1512
1443 1443 1437 1439 1440 1441 1446 1444 1444 1443 1443 1442 1442 1443 1444 1442 1441 1440 1439 1438 1437 1437 1439 1440 1442 1445 1448 1452 1456 1460 1465 1469 1472 1475 1479 1482 1486 1490 1494 1497 1500 1503 1505 1507
1441 1444 1445 1441 1441 1443 1445 1445 1445 1444 1443 1442 1442 1442 1442 1441 1440 1439 1437 1436 1435 1435 1436 1437 1439 1441 1444 1448 1452 1457 1461 1464 1468 1471 1475 1479 1482 1485 1488 1492 1495 1497 1500 1502
1440 1443 1444 1444 1445 1447 1447 1446 1445 1444 1443 1442 1441 1441 1441 1440 1439 1437 1436 1435 1434 1434 1434 1435 1436 1439 1442 1445 1449 1452 1456 1460 1463 1467 1471 1474 1477 1480 1484 1486 1490 1492 1494 1497
1441 1442 1445 1446 1447 1447 1446 1446 1445 1443 1442 1441 1441 1440 1440 1439 1438 1437 1436 1434 1434 1433 1433 1434 1435 1437 1439 1443 1445 1449 1452 1456 1460 1463 1467 1470 1473 1476 1479 1482 1485 1487 1490 1492
1441 1443 1445 1447 1447 1447 1446 1445 1444 1442 1441 1441 1440 1440 1440 1440 1439 1438 1437 1435 1434 1434 1434 1434 1435 1436 1438 1440 1443 1446 1450 1453 1457 1460 1464 1466 1469 1472 1475 1478 1480 1483 1486 1488
1442 1445 1446 1448 1448 1448 1447 1446 1445 1443 1442 1442 1441 1442 1442 1441 1441 1440 1439 1438 1437 1436 1436 1436 1436 1436 1438 1440 1442 1445 1448 1451 1455 1458 1461 1464 1466 1469 1471 1474 1477 1479 1482 1485
1446 1447 1448 1449 1449 1449 1448 1447 1446 1445 1444 1444 1444 1444 1444 1444 1443 1442 1442 1441 1440 1440 1439 1439 1439 1439 1440 1442 1443 1445 1448 1451 1454 1457 1459 1462 1464 1466 1469 1472 1474 1477 1479 1481
1448 1448 1449 1449 1450 1450 1449 1449 1449 1448 1448 1447 1447 1447 1447 1446 1446 1445 1445 1445 1444 1444 1443 1443 1442 1443 1444 1445 1446 1447 1450 1452 1454 1457 1459 1462 1464 1466 1469 1471 1473 1475 1477 1479
1448 1448 1449 1450 1451 1451 1451 1451 1451 1451 1451 1451 1451 1451 1450 1450 1450 1450 1450 1449 1448 1448 1448 1447 1446 1447 1448 1449 1449 1450 1452 1454 1456 1458 1460 1462 1465 1467 1469 1471 1473 1475 1477 1478
1449 1450 1450 1451 1452 1453 1453 1454 1454 1454 1455 1455 1455 1455 1455 1455 1454 1454 1454 1454 1453 1453 1453 1452 1451 1452 1452 1453 1453 1454 1455 1457 1459 1460 1462 1464 1466 1467 1469 1471 1472 1474 1476 1477
1450 1451 1452 1452 1453 1454 1456 1456 1457 1458 1459 1459 1460 1460 1460 1460 1459 1459 1460 1460 1459 1459 1458 1457 1457 1457 1457 1457 1457 1458 1460 1461 1462 1463 1463 1465 1467 1468 1470 1471 1473 1474 1475 1476
1451 1452 1453 1454 1455 1456 1457 1459 1460 1461 1462 1463 1464 1464 1464 1465 1465 1465 1466 1466 1465 1465 1464 1463 1463 1462 1462 1462 1462 1463 1464 1465 1465 1466 1467 1468 1469 1470 1471 1472 1473 1474 1475 1475
1452 1453 1455 1456 1457 1458 1460 1461 1463 1464 1466 1467 1468 1469 1469 1470 1470 1471 1472 1471 1471 1470 1470 1469 1469 1468 1467 1467 1467 1467 1468 1468 1468 1469 1470 1470 1471 1472 1472 1473 1474 1474 1475 1475
1454 1456 1457 1459 1460 1461 1463 1465 1466 1468 1469 1471 1472 1473 1474 1474 1475 1475 1476 1475 1475 1475 1475 1474 1474 1473 1472 1471 1471 1471 1471 1471 1471 1472 1472 1473 1473 1473 1473 1474 1474 1474 1474 1474
1457 1458 1460 1461 1463 1465 1467 1468 1470 1472 1473 1475 1476 1477 1478 1479 1479 1479 1479 1479 1479 1479 1478 1478 1477 1476 1475 1474 1474 1474 1473 1473 1474 1474 1474 1474 1474 1474 1474 1474 1474 1474 1474 1474
1460 1461 1463 1465 1467 1469 1470 1472 1474 1475 1477 1478 1479 1480 1481 1482 1483 1483 1483 1483 1482 1482 1482 1481 1480 1478 1477 1477 1477 1476 1476 1476 1476 1476 1476 1475 1475 1475 1475 1475 1475 1474 1474 1474
1463 1464 1466 1468 1470 1472 1474 1476 1478 1479 1480 1482 1483 1483 1484 1485 1485 1485 1485 1485 1485 1484 1483 1483 1481 1480 1479 1480 1479 1478 1478 1478 1477 1477 1477 1476 1476 1476 1475 1475 1474 1474 1473 1473
1467 1468 1470 1472 1474 1475 1477 1479 1480 1482 1483 1484 1485 1485 1486 1486 1487 1487 1486 1486 1485 1485 1485 1484 1482 1482 1481 1482 1481 1480 1479 1479 1478 1478 1478 1477 1477 1476 1475 1474 1474 1473 1472 1472
1470 1472 1474 1475 1476 1478 1480 1481 1482 1484 1485 1486 1487 1487 1488 1488 1488 1488 1488 1487 1487 1486 1486 1485 1484 1483 1483 1483 1482 1481 1480 1479 1479 1478 1478 1477 1477 1476 1475 1474 1473 1472 1471 1470
1473 1475 1476 1478 1479 1481 1482 1483 1485 1486 1487 1487 1488 1489 1489 1489 1489 1489 1489 1488 1488 1487 1487 1486 1485 1484 1484 1483 1482 1481 1481 1480 1479 1479 1478 1477 1476 1475 1474 1473 1472 1471 1470 1469
1477 1478 1479 1481 1482 1483 1484 1485 1486 1487 1488 1488 1489 1489 1489 1490 1490 1489 1489 1489 1489 1488 1487 1487 1486 1485 1484 1483 1482 1482 1481 1480 1479 1479 1478 1477 1476 1475 1473 1472 1471 1470 1469 1467